Погода в Пшемысле

Польша     49°47′02″N   22°47′20″E
темп.,
°C
ветер,
м/с
пор.,
м/с
влажн.,
%
обл.,
%
осадки,
мм/ч
давл.,
гПа
погр.,
м
27 февраля, сб
сб2701:00+4сз51091100 1.4 1026684
04:00+4зсз5109099 0.3 1025640
07:00+3зсз5109299 0.3 1026772
10:00+4сз61084100 0.1 1027940
13:00+4сз61185100 0.1 1029870
16:00+4сз6118599 0.2 1029950
19:00+3сз4118699 0.6 1031887
22:00+2сз3118789 0.2 1032515
28 февраля, вс
вс2801:000зсз4119257 0.2 1034419
04:00−1зсз410920 0.0 1034409
07:00−1з49922 0.0 1034394
10:00+4зсз597150 0.0 1033834
13:00+5зсз686425 0.0 1032936
16:00+4з5107380 0.0 1030758
19:00+2з5138558 0.0 1030624
22:00+3сз4119099 0.0 1030715
1 марта, пн
пн101:00+2сз4109799 0.6 1031568
04:00+2ссз3796100 0.1 1031388
07:00+2сз3695100 0.1 1033301
10:00+3ссз348888 0.0 1034486
13:00+3сз348594 0.1 1035481
16:00+3ссз2587100 0.0 1034488
19:00+3зсз1190100 0.0 103625
22:00+2юз229380 0.0 103633
2 марта, вт
вт201:00+1зюз239463 0.0 103683
04:00+1зюз369332 0.0 1034143
07:00+2зюз389016 0.0 1034202
10:00+7з58720 0.0 1033544
13:00+10зсз58632 0.0 1033825
16:00+8зсз38700 0.0 1032563
19:00+4з36840 0.0 1033122
22:00+3зюз33870 0.0 103367
3 марта, ср
ср301:00+3зюз35870 0.0 103394
04:00+2зюз36860 0.0 1032123
07:00+2зюз37850 0.0 1032153
10:00+8зсз36670 0.0 1032484
13:00+11зсз35560 0.0 1030784
16:00+10з12640 0.0 102943
19:00+5зюз23811 0.0 102855
22:00+4юз238166 0.0 102838